Weather History for Warrensburg, MO

Change the Weather History Date:

Thursday, August 23, 2012

  Actual Average (KSZL) Record (KSZL)
Temperature  
Mean Temperature 78 °F -  
Max Temperature 95 °F 86 °F 96 °F (1998)
Min Temperature 62 °F 66 °F 57 °F (1997)
Cooling Degree Days 14    
Growing Degree Days 28 (Base 50)    
Moisture  
Dew Point 46 °F    
Average Humidity 36    
Maximum Humidity 68    
Minimum Humidity 15    
Precipitation  
Precipitation 0.00 in - - ()
Sea Level Pressure  
Sea Level Pressure 30.01 in    
Wind  
Wind Speed 7 mph (South)    
Max Wind Speed 20 mph    
Max Gust Speed 28 mph    
Visibility 10 miles    
Events      
Averages and records for this station are not official NWS values.
T = Trace of Precipitation, MM = Missing Value Source: NWS Daily Summary

Daily Weather History Graph

Daily Weather History Graph

Search for Another Location

Airport:

Trip Planner

Search our weather history database for the weather conditions in past years. The results will help you decide how hot, cold, wet, or windy it might be!

Date:

Astronomy

Aug. 23, 2012 Rise Set
Actual Time 6:36 AM CDT 7:58 PM CDT
Civil Twilight 6:08 AM CDT 8:25 PM CDT
Nautical Twilight 5:35 AM CDT 8:58 PM CDT
Astronomical Twilight 5:00 AM CDT 9:33 PM CDT
Moon 1:19 PM CDT (8/23) 11:32 PM CDT (8/23)
Length of Visible Light 14h 16m
Length of Day
13h 21m
Waxing Crescent, 40% of the Moon is Illuminated
Aug 23
Waxing Crescent
Aug 24
First Quarter
Aug 31
Full
Sep 8
Last Quarter
Sep 15
New

Hourly Weather History & Observations

Time (CDT) Temp. Dew Point Humidity Pressure Visibility Wind Dir Wind Speed Gust Speed Precip Events Conditions
12:15 AM 71.6 °F 48.2 °F 43% 30.02 in 10.0 mi South 5.8 mph - N/A   Clear
12:35 AM 69.8 °F 48.2 °F 46% 30.02 in 10.0 mi SSE 5.8 mph - N/A   Clear
12:55 AM 69.8 °F 50.0 °F 49% 30.02 in 10.0 mi South 4.6 mph - N/A   Clear
1:15 AM 69.8 °F 48.2 °F 46% 30.02 in 10.0 mi South 4.6 mph - N/A   Clear
1:35 AM 69.8 °F 50.0 °F 49% 30.02 in 10.0 mi South 4.6 mph - N/A   Clear
1:55 AM 69.8 °F 51.8 °F 53% 30.01 in 10.0 mi South 4.6 mph - N/A   Clear
2:15 AM 68.0 °F 50.0 °F 52% 30.02 in 10.0 mi South 4.6 mph - N/A   Clear
2:35 AM 66.2 °F 51.8 °F 60% 30.02 in 10.0 mi South 4.6 mph - N/A   Clear
2:55 AM 66.2 °F 50.0 °F 56% 30.02 in 10.0 mi SSE 4.6 mph - N/A   Clear
3:15 AM 64.4 °F 50.0 °F 59% 30.02 in 10.0 mi SSE 3.5 mph - N/A   Clear
3:35 AM 62.6 °F 50.0 °F 63% 30.02 in 10.0 mi Calm Calm - N/A   Clear
3:55 AM 62.6 °F 51.8 °F 68% 30.02 in 10.0 mi SSE 3.5 mph - N/A   Clear
4:15 AM 62.6 °F 51.8 °F 68% 30.02 in 10.0 mi South 4.6 mph - N/A   Clear
4:35 AM 64.4 °F 51.8 °F 64% 30.02 in 10.0 mi South 4.6 mph - N/A   Clear
4:55 AM 62.6 °F 50.0 °F 63% 30.03 in 10.0 mi Calm Calm - N/A   Clear
5:15 AM 62.6 °F 50.0 °F 63% 30.03 in 10.0 mi SSE 3.5 mph - N/A   Clear
5:35 AM 62.6 °F 50.0 °F 63% 30.03 in 10.0 mi SSE 4.6 mph - N/A   Clear
5:55 AM 62.6 °F 51.8 °F 68% 30.04 in 10.0 mi SSE 5.8 mph - N/A   Clear
6:15 AM 62.6 °F 51.8 °F 68% 30.05 in 10.0 mi South 5.8 mph - N/A   Clear
6:35 AM 62.6 °F 50.0 °F 63% 30.05 in 10.0 mi South 4.6 mph - N/A   Clear
6:55 AM 62.6 °F 50.0 °F 63% 30.06 in 10.0 mi SSE 5.8 mph - N/A   Clear
7:15 AM 64.4 °F 50.0 °F 59% 30.07 in 10.0 mi SSE 5.8 mph - N/A   Clear
7:35 AM 64.4 °F 50.0 °F 59% 30.07 in 10.0 mi SSE 4.6 mph - N/A   Clear
7:55 AM 68.0 °F 50.0 °F 52% 30.08 in 10.0 mi SSE 5.8 mph - N/A   Clear
8:15 AM 69.8 °F 50.0 °F 49% 30.08 in 10.0 mi SSE 5.8 mph - N/A   Clear
8:35 AM 71.6 °F 50.0 °F 46% 30.08 in 10.0 mi SSE 5.8 mph - N/A   Clear
8:55 AM 75.2 °F 50.0 °F 41% 30.08 in 10.0 mi SSE 5.8 mph - N/A   Clear
9:15 AM 78.8 °F 50.0 °F 36% 30.08 in 10.0 mi South 5.8 mph - N/A   Clear
9:35 AM 82.4 °F 50.0 °F 32% 30.08 in 10.0 mi SSW 8.1 mph - N/A   Clear
9:55 AM 84.2 °F 50.0 °F 30% 30.08 in 10.0 mi SSW 10.4 mph - N/A   Clear
10:15 AM 86.0 °F 48.2 °F 27% 30.08 in 10.0 mi SSW 9.2 mph - N/A   Clear
10:35 AM 86.0 °F 48.2 °F 27% 30.08 in 10.0 mi SSW 10.4 mph - N/A   Clear
10:55 AM 87.8 °F 46.4 °F 24% 30.07 in 10.0 mi South 13.8 mph 18.4 mph N/A   Clear
11:15 AM 87.8 °F 46.4 °F 24% 30.08 in 10.0 mi SSW 15.0 mph - N/A   Clear
11:35 AM 89.6 °F 46.4 °F 22% 30.07 in 10.0 mi SSW 9.2 mph 20.7 mph N/A   Clear
11:55 AM 91.4 °F 44.6 °F 20% 30.06 in 10.0 mi SW 16.1 mph 21.9 mph N/A   Clear
12:15 PM 91.4 °F 44.6 °F 20% 30.05 in 10.0 mi SSW 15.0 mph 21.9 mph N/A   Clear
12:35 PM 91.4 °F 42.8 °F 18% 30.05 in 10.0 mi South 12.7 mph 25.3 mph N/A   Clear
12:55 PM 91.4 °F 42.8 °F 18% 30.04 in 10.0 mi South 16.1 mph 27.6 mph N/A   Clear
1:15 PM 91.4 °F 42.8 °F 18% 30.04 in 10.0 mi South 16.1 mph 25.3 mph N/A   Clear
1:35 PM 91.4 °F 42.8 °F 18% 30.03 in 10.0 mi South 17.3 mph 27.6 mph N/A   Clear
1:55 PM 91.4 °F 42.8 °F 18% 30.03 in 10.0 mi SSW 19.6 mph 24.2 mph N/A   Clear
2:15 PM 91.4 °F 42.8 °F 18% 30.02 in 10.0 mi South 9.2 mph 18.4 mph N/A   Clear
2:35 PM 93.2 °F 42.8 °F 17% 30.02 in 10.0 mi SSE 16.1 mph 23.0 mph N/A   Clear
2:55 PM 95.0 °F 42.8 °F 16% 30.00 in 10.0 mi South 13.8 mph 26.5 mph N/A   Clear
3:15 PM 93.2 °F 41.0 °F 16% 30.00 in 10.0 mi SW 16.1 mph 21.9 mph N/A   Clear
3:35 PM 95.0 °F 41.0 °F 15% 29.99 in 10.0 mi SSE 15.0 mph 21.9 mph N/A   Clear
3:55 PM 91.4 °F 41.0 °F 17% 29.98 in 10.0 mi South 11.5 mph 16.1 mph N/A   Clear
4:15 PM 95.0 °F 41.0 °F 15% 29.98 in 10.0 mi South 15.0 mph 19.6 mph N/A   Clear
4:35 PM 95.0 °F 41.0 °F 15% 29.97 in 10.0 mi South 9.2 mph - N/A   Clear
4:55 PM 93.2 °F 41.0 °F 16% 29.96 in 10.0 mi SSE 10.4 mph 18.4 mph N/A   Clear
5:15 PM 93.2 °F 41.0 °F 16% 29.96 in 10.0 mi South 11.5 mph - N/A   Clear
5:35 PM 91.4 °F 42.8 °F 18% 29.95 in 10.0 mi SSE 10.4 mph - N/A   Clear
5:55 PM 93.2 °F 41.0 °F 16% 29.95 in 10.0 mi SSE 11.5 mph - N/A   Clear
6:15 PM 93.2 °F 41.0 °F 16% 29.95 in 10.0 mi South 10.4 mph 17.3 mph N/A   Clear
6:35 PM 91.4 °F 41.0 °F 17% 29.94 in 10.0 mi South 9.2 mph - N/A   Clear
6:55 PM 89.6 °F 41.0 °F 18% 29.94 in 10.0 mi South 11.5 mph - N/A   Clear
7:15 PM 89.6 °F 41.0 °F 18% 29.94 in 10.0 mi South 10.4 mph - N/A   Clear
7:35 PM 87.8 °F 41.0 °F 19% 29.94 in 10.0 mi South 6.9 mph - N/A   Clear
7:55 PM 86.0 °F 41.0 °F 20% 29.94 in 10.0 mi South 5.8 mph - N/A   Clear
8:15 PM 82.4 °F 41.0 °F 23% 29.94 in 10.0 mi South 4.6 mph - N/A   Clear
8:35 PM 82.4 °F 42.8 °F 25% 29.95 in 10.0 mi South 4.6 mph - N/A   Clear
8:55 PM 80.6 °F 42.8 °F 26% 29.95 in 10.0 mi SSE 3.5 mph - N/A   Clear
9:15 PM 78.8 °F 42.8 °F 28% 29.95 in 10.0 mi SSE 3.5 mph - N/A   Clear
9:35 PM 77.0 °F 44.6 °F 32% 29.96 in 10.0 mi SSE 3.5 mph - N/A   Clear
9:55 PM 77.0 °F 42.8 °F 29% 29.97 in 10.0 mi SE 4.6 mph - N/A   Clear
10:15 PM 75.2 °F 42.8 °F 31% 29.97 in 10.0 mi SE 5.8 mph - N/A   Clear
10:35 PM 73.4 °F 44.6 °F 36% 29.97 in 10.0 mi SE 6.9 mph - N/A   Clear
10:55 PM 75.2 °F 44.6 °F 34% 29.97 in 10.0 mi SE 6.9 mph - N/A   Clear
11:15 PM 75.2 °F 44.6 °F 34% 29.98 in 10.0 mi SSE 5.8 mph - N/A   Clear
11:35 PM 75.2 °F 44.6 °F 34% 29.99 in 10.0 mi SSE 4.6 mph - N/A   Clear
11:55 PM 73.4 °F 44.6 °F 36% 30.00 in 10.0 mi South 3.5 mph - N/A   Clear